Regional Weather Roundup
Issued by NWS

Home | Current Version | Previous Version | Text Only | Print | Product List | Glossary On
Versions: 1 2 3 4 5 6 7 8 9 10 11 12 13 14 15 16 17 18 19 20 21 22 23 24 25 26 27 28 29 30 31 32 33 34 35 36 37 38 39 40 41 42 43 44 45 46 47 48 49 50
353
ASUS44 KJAN 292210
RWRMS

MISSISSIPPI HOURLY WEATHER ROUNDUP
NATIONAL WEATHER SERVICE JACKSON MS
500 PM CDT WED OCT 29 2014

NOTE: "FAIR: INDICATES FEW OR NO CLOUDS BELOW 12,000 FEET WITH NO
SIGNIFICANT WEATHER AND/OR OBSTRUCTIONS TO VISIBILITY.

MSZ001>002-007>008-010>013-018>021-025>028-034>036-292300-
NORTHWEST MISSISSIPPI

CITY           SKY/WX    TMP DP  RH WIND       PRES   REMARKS
CLARKSDALE     FAIR      66  48  52 N8        30.14F
CLEVELAND      FAIR      69  43  39 N8        30.13R
GREENWOOD      SUNNY     70  40  33 N10       30.12S
GREENVILLE     SUNNY     71  41  33 N10       30.12S
GRENADA        FAIR      68  41  37 CALM      30.12S
OLIVE BRANCH   MOSUNNY   64  43  45 NW8       30.14S
OXFORD         FAIR      66  39  37 N8        30.14S
TUNICA         CLEAR     66  43  42 N8        30.14S
$$

MSZ003>006-009-014>017-022>024-029>033-037>039-292300-
NORTHEAST MISSISSIPPI

CITY           SKY/WX    TMP DP  RH WIND       PRES   REMARKS
COLUMBUS AFB   SUNNY     68  40  35 N10       30.10R
CORINTH        FAIR      66  34  30 N7G15     30.11S
GOLDN TRIANGLE SUNNY     70  43  37 N12G18    30.09
STARKVILLE     FAIR      68  41  37 N5        30.10S
TUPELO         SUNNY     68  38  33 N12       30.11S
$$

MSZ040-058-292300-
CENTRAL MISSISSIPPI

CITY           SKY/WX    TMP DP  RH WIND       PRES   REMARKS
JACKSON INTL   MOSUNNY   71  44  37 N12       30.09R
JACKSON HAWKNS SUNNY     71  42  35 N8        30.10R
MERIDIAN KEY   SUNNY     69  49  48 N13       30.07R
MERIDIAN NAS   MOSUNNY   68  49  50 N10       30.08S
RAYMOND        FAIR      72  66  83 MISG      30.10R
VICKSBURG      SUNNY     72  45  37 N9        30.11S
$$

MSZ059>079-292300-
SOUTH MISSISSIPPI

CITY           SKY/WX    TMP DP  RH WIND       PRES   REMARKS
BROOKHAVEN     FAIR      73  59  60 N6        30.08S
COLUMBIA         N/A     73  64  73 MISG      30.03R
HATTIESBURG    MOSUNNY   76  65  68 N9        30.03S
MCCOMB         PTSUNNY   73  62  68 N14       30.05R
NATCHEZ        SUNNY     70  54  56 N7        30.10R
PINE BELT      MOSUNNY   73  55  53 N8        30.06R
$$

MSZ080>082-292300-
COASTAL MISSISSIPPI

CITY           SKY/WX    TMP DP  RH WIND       PRES   REMARKS
BAY ST LOUIS   MOSUNNY   82  61  47 NW3       30.00S
BILOXI         PTSUNNY   80  69  69 VRB2      30.00R
PASCAGOULA     PTSUNNY   76  69  79 S3        29.99S
GULFPORT       MOSUNNY   81  65  58 N3        29.99S
$$



USA.gov is the U.S. government's official web portal to all federal, state and local government web resources and services.